STARLINK-34915, 65187

Orbit data source: Space-Track

STARLINK-34915, 65187 is a payload satellite owned by SpaceX/Seattle (US) in SSO that was launched on Thu, 14 Aug 2025 UTC via an FALCON 9 launch vehicle from the Air Force Western Test Range (AFWTR). Payload-class satellites include a variety of spacecraft equipped with specific instruments for various scientific and technological missions. These include communications satellites like Starlink; space stations such as the ISS; scientific satellites like the Hubble; Earth observation satellites from companies like Planet Labs, Umbra, and HawkEye 360; GPS; miniature CubeSats for education and research; and military/defense satellites.

Loading next visibility...
Identifier
65187, 2025-175P
Orbit
SSO
Country
Flag of USUS
Related business
Manufacturer
SpaceX/Seattle
Mission
Operational Commercial Communications
Bus & Motor
STARLINK V2MO, Unknown motor
Mass
575 kg wet, ~530 kg dry
Launch date (UTC)
2025-08-14 (10 months ago)
Launch vehicle
FALCON 9
Launch site
Air Force Western Test Range (AFWTR)
Object type
Payload
Rocket body
Debris
Shape & HBR
Box + 2 Pan, 17.7 m
Radar Cross Section
36.964 m², Large (>1 m²)

Expand to show TLE details & history
Last TLE update: 13 hours ago

TLE from 13 hours ago
0 STARLINK-34915
1 65187U 25175P   26171.32209598  .00010848  00000-0  75453-3 0  9990
2 65187  97.3411  42.7248 0002171  80.5872 279.5600 15.05656078 48084
Epoch: 2026-06-20T07:43Z
TLE epoch observation values (Epoch: 2026-06-20T07:43:49.092Z)
Latitude
-0.00012°
Longitude
18.23188°
Altitude
552.316 km
Speed
7.586 km/s
True Right ascension
02h 50m 53s
True Declination
0° 00' 00"
Sunlit
Object was in daylight at epoch
Visualization orbit readout
Latitude
Unknown
Longitude
Unknown
Altitude
Unknown
Speed
Unknown
Apparent Right ascension
Unknown
Apparent Declination
Unknown
Sunlit
N/A
Visualization observer readout
Local Sidereal Time
07:17:31
Azimuth
Unknown
Elevation
Unknown
Doppler factor
Unknown
Orbital elements
Apogee altitude
547.978 km
Perigee altitude
544.971 km
Semi-major axis
6,924.612 km
Eccentricity
0.00022
Inclination
97.3411°
RAAN
42.7248°
Arg. of periapsis
80.5872°
True anomaly
279.53547°
Mean anomaly
279.56°
Eccentric anomaly
279.54773°
Mean motion
3.7666 °/min
Orbital period
95.58 mins
BSTAR
0.00075453
Loading maneuver chart data...
Computing Atmospheric mass density...
Loading historical data...
Loading historical data...
Loading historical data...
Loading historical data...
Loading historical data...
Loading historical data...
Loading historical data...

Documentation

Showing up to 5 results
|